SWA3705 KBOS-KDEN

Flight info

Callsign SWA3705
Flight time N/A
Altitude 34000
Route HYLND7 HYLND DCT HANAA Q816 HOCKE Q935 MONEE DCT IANNA/N0457F360 DCT ONL DCT PORDR AALLE3
Aircraft B738/M-SDE2E3FGHIRWXY/LB1

Departure

Time 2026-05-07 09:49
Airport Boston Logan International Airport (KBOS)

Arrival

Time N/A
Airport Denver International Airport (KDEN)
Time Latitude Longitude Altitude Speed Heading
2026-05-07 09:24 42.36292 -71.01561 24 ft 0 kts 338°
2026-05-07 09:37 42.36286 -71.01557 24 ft 2 kts 338°
2026-05-07 09:37 42.36270 -71.01549 29 ft 2 kts 338°
2026-05-07 09:38 42.36256 -71.01541 28 ft 2 kts 338°
2026-05-07 09:38 42.36240 -71.01533 29 ft 2 kts
2026-05-07 09:38 42.36227 -71.01543 29 ft 2 kts 71°
2026-05-07 09:38 42.36227 -71.01564 29 ft 2 kts 109°
2026-05-07 09:39 42.36229 -71.01571 28 ft 0 kts 109°
2026-05-07 09:43 42.36221 -71.01543 29 ft 5 kts 109°
2026-05-07 09:44 42.36232 -71.01484 30 ft 8 kts 38°
2026-05-07 09:44 42.36296 -71.01452 26 ft 12 kts 19°
2026-05-07 09:44 42.36359 -71.01406 28 ft 9 kts 62°
2026-05-07 09:44 42.36338 -71.01315 26 ft 12 kts 123°
2026-05-07 09:45 42.36285 -71.01207 24 ft 15 kts 121°
2026-05-07 09:45 42.36234 -71.01068 25 ft 17 kts 114°
2026-05-07 09:45 42.36184 -71.00918 26 ft 17 kts 115°
2026-05-07 09:45 42.36135 -71.00770 26 ft 17 kts 114°
2026-05-07 09:46 42.36093 -71.00613 25 ft 19 kts 109°
2026-05-07 09:46 42.36047 -71.00428 27 ft 22 kts 109°
2026-05-07 09:46 42.35994 -71.00227 28 ft 24 kts 109°
2026-05-07 09:46 42.35912 -71.00022 26 ft 26 kts 135°
2026-05-07 09:47 42.35780 -70.99848 24 ft 27 kts 135°
2026-05-07 09:47 42.35642 -70.99662 24 ft 29 kts 135°
2026-05-07 09:47 42.35510 -70.99486 24 ft 17 kts 135°
2026-05-07 09:47 42.35496 -70.99365 24 ft 14 kts 77°
2026-05-07 09:48 42.35530 -70.99276 25 ft 6 kts 17°
2026-05-07 09:48 42.35568 -70.99302 24 ft 6 kts 316°
2026-05-07 09:48 42.35618 -70.99371 24 ft 27 kts 315°
2026-05-07 09:48 42.35930 -70.99788 26 ft 97 kts 316°
2026-05-07 09:49 42.36548 -71.00642 28 ft 155 kts 310°
2026-05-07 09:49 42.37344 -71.01794 414 ft 180 kts 310°
2026-05-07 09:49 42.38246 -71.03098 1080 ft 188 kts 314°
2026-05-07 09:49 42.39096 -71.04404 1954 ft 186 kts 302°
2026-05-07 09:50 42.39742 -71.06025 2226 ft 207 kts 299°
2026-05-07 09:50 42.40453 -71.07822 2453 ft 228 kts 299°
2026-05-07 09:50 42.41369 -71.09607 2794 ft 242 kts 319°
2026-05-07 09:50 42.42835 -71.10810 3414 ft 251 kts 334°
2026-05-07 09:51 42.44463 -71.11722 4184 ft 255 kts 335°
2026-05-07 09:51 42.46134 -71.12585 4928 ft 260 kts 335°
2026-05-07 09:51 42.47840 -71.13481 5610 ft 265 kts 333°
2026-05-07 09:51 42.49563 -71.14405 6346 ft 268 kts 332°
2026-05-07 09:52 42.51310 -71.15346 7038 ft 271 kts 332°
2026-05-07 09:52 42.53104 -71.16202 7758 ft 275 kts 333°
2026-05-07 09:52 42.54932 -71.17024 8456 ft 279 kts 333°
2026-05-07 09:52 42.56764 -71.17841 9158 ft 282 kts 332°
2026-05-07 09:53 42.58637 -71.18680 9863 ft 285 kts 330°
2026-05-07 09:53 42.60539 -71.19541 10369 ft 295 kts 330°
2026-05-07 09:53 42.62555 -71.20468 10520 ft 317 kts 330°
2026-05-07 09:53 42.64720 -71.21462 10676 ft 338 kts 331°
2026-05-07 09:54 42.67005 -71.22500 10929 ft 354 kts 332°
2026-05-07 09:54 42.69379 -71.23570 11435 ft 362 kts 332°
2026-05-07 09:54 42.71786 -71.24659 12023 ft 367 kts 331°
2026-05-07 09:54 42.74225 -71.25770 12621 ft 372 kts 330°
2026-05-07 09:55 42.76459 -71.27276 13150 ft 355 kts 311°
2026-05-07 09:55 42.78079 -71.29665 13762 ft 337 kts 293°
2026-05-07 09:55 42.79076 -71.32460 14335 ft 324 kts 279°
2026-05-07 09:55 42.79691 -71.35402 14941 ft 323 kts 276°
2026-05-07 09:56 42.80242 -71.38370 15528 ft 325 kts 275°
2026-05-07 09:56 42.80780 -71.41369 16094 ft 327 kts 275°
2026-05-07 09:56 42.81323 -71.44390 16678 ft 330 kts 275°
2026-05-07 09:56 42.81877 -71.47443 17247 ft 333 kts 276°
2026-05-07 09:57 42.82432 -71.50476 17805 ft 336 kts 276°
2026-05-07 09:57 42.83003 -71.53572 18331 ft 339 kts 276°
2026-05-07 09:57 42.83581 -71.56692 18850 ft 340 kts 276°
2026-05-07 09:57 42.84161 -71.59809 19419 ft 340 kts 276°
2026-05-07 09:58 42.84743 -71.62932 19973 ft 340 kts 276°
2026-05-07 09:58 42.85324 -71.66056 20513 ft 341 kts 276°
2026-05-07 09:58 42.85906 -71.69188 21054 ft 341 kts 276°
2026-05-07 09:58 42.86488 -71.72326 21586 ft 342 kts 276°
2026-05-07 09:59 42.87070 -71.75469 22074 ft 343 kts 276°
2026-05-07 09:59 42.87646 -71.78586 22557 ft 344 kts 276°
2026-05-07 09:59 42.88231 -71.81752 23033 ft 345 kts 276°
2026-05-07 09:59 42.88815 -71.84925 23498 ft 346 kts 276°
2026-05-07 10:00 42.89401 -71.88108 23893 ft 346 kts 276°
2026-05-07 10:00 42.89985 -71.91283 24337 ft 345 kts 276°
2026-05-07 10:00 42.90568 -71.94455 24775 ft 344 kts 275°
2026-05-07 10:00 42.91148 -71.97623 25172 ft 344 kts 275°
2026-05-07 10:01 42.91719 -72.00748 25546 ft 344 kts 275°
2026-05-07 10:01 42.92298 -72.03920 25916 ft 345 kts 275°
2026-05-07 10:01 42.92875 -72.07092 26303 ft 345 kts 275°
2026-05-07 10:01 42.93453 -72.10267 26684 ft 344 kts 275°
2026-05-07 10:02 42.94029 -72.13438 27042 ft 345 kts 275°
2026-05-07 10:02 42.94605 -72.16619 27368 ft 345 kts 275°
2026-05-07 10:02 42.95180 -72.19802 27726 ft 345 kts 275°
2026-05-07 10:02 42.95754 -72.22978 28082 ft 345 kts 275°
2026-05-07 10:03 42.96320 -72.26120 28409 ft 346 kts 275°
2026-05-07 10:03 42.96893 -72.29302 28836 ft 344 kts 275°
2026-05-07 10:03 42.97460 -72.32441 29467 ft 337 kts 275°
2026-05-07 10:03 42.98017 -72.35523 30021 ft 332 kts 275°
2026-05-07 10:04 42.98563 -72.38565 30416 ft 329 kts 275°
2026-05-07 10:04 42.99106 -72.41607 30623 ft 331 kts 275°
2026-05-07 10:04 42.99649 -72.44671 30827 ft 332 kts 275°
2026-05-07 10:04 43.00186 -72.47693 31134 ft 331 kts 275°
2026-05-07 10:05 43.00728 -72.50734 31498 ft 328 kts 275°
2026-05-07 10:05 43.01264 -72.53755 31753 ft 328 kts 275°
2026-05-07 10:05 43.01801 -72.56791 31905 ft 330 kts 275°
2026-05-07 10:05 43.02340 -72.59846 32125 ft 330 kts 275°
2026-05-07 10:06 43.02878 -72.62886 32420 ft 328 kts 275°
2026-05-07 10:06 43.03412 -72.65913 32684 ft 328 kts 275°
2026-05-07 10:06 43.03947 -72.68948 32944 ft 329 kts 275°
2026-05-07 10:07 43.05019 -72.75085 32990 ft 338 kts 275°
2026-05-07 10:07 43.06125 -72.81414 33086 ft 346 kts 275°
2026-05-07 10:07 43.06686 -72.84625 33192 ft 347 kts 276°
2026-05-07 10:08 43.07246 -72.87831 33385 ft 347 kts 276°
2026-05-07 10:08 43.07808 -72.91047 33549 ft 347 kts 276°
2026-05-07 10:08 43.08367 -72.94265 33722 ft 348 kts 276°
2026-05-07 10:08 43.08926 -72.97484 33871 ft 349 kts 276°
2026-05-07 10:09 43.09477 -73.00674 33871 ft 350 kts 276°
2026-05-07 10:09 43.10599 -73.07164 33889 ft 350 kts 276°
2026-05-07 10:10 43.11713 -73.13645 33885 ft 350 kts 276°
2026-05-07 10:10 43.12824 -73.20126 33901 ft 350 kts 276°
2026-05-07 10:11 43.13925 -73.26577 33895 ft 351 kts 276°
2026-05-07 10:11 43.15033 -73.33093 33901 ft 352 kts 276°
2026-05-07 10:12 43.16140 -73.39627 33887 ft 353 kts 276°
2026-05-07 10:12 43.17244 -73.46170 33893 ft 353 kts 276°
2026-05-07 10:13 43.18341 -73.52688 33892 ft 354 kts 276°
2026-05-07 10:13 43.19444 -73.59272 33897 ft 355 kts 276°
2026-05-07 10:14 43.20165 -73.65912 33897 ft 351 kts 271°
2026-05-07 10:14 43.20647 -73.72580 33901 ft 352 kts 271°
2026-05-07 10:15 43.21130 -73.79265 33897 ft 352 kts 271°
2026-05-07 10:15 43.21615 -73.85913 33903 ft 354 kts 271°
2026-05-07 10:16 43.22105 -73.92626 33901 ft 354 kts 271°
2026-05-07 10:16 43.22593 -73.99353 33914 ft 355 kts 271°
2026-05-07 10:17 43.23078 -74.06104 33920 ft 356 kts 271°
2026-05-07 10:17 43.23558 -74.12824 33933 ft 357 kts 271°
2026-05-07 10:18 43.24038 -74.19599 33926 ft 358 kts 271°
2026-05-07 10:18 43.24515 -74.26393 33943 ft 358 kts 271°
2026-05-07 10:19 43.24985 -74.33203 33936 ft 358 kts 270°
2026-05-07 10:19 43.25234 -74.39971 33943 ft 358 kts 268°
2026-05-07 10:20 43.25391 -74.46794 33938 ft 358 kts 268°
2026-05-07 10:20 43.25550 -74.53627 33950 ft 359 kts 268°
2026-05-07 10:21 43.25717 -74.60471 33943 ft 359 kts 268°
2026-05-07 10:21 43.25884 -74.67275 33961 ft 360 kts 268°
2026-05-07 10:22 43.26051 -74.74140 33953 ft 360 kts 268°
2026-05-07 10:22 43.26214 -74.81018 33958 ft 361 kts 268°
2026-05-07 10:23 43.26373 -74.87898 33958 ft 361 kts 268°
2026-05-07 10:23 43.26528 -74.94751 33967 ft 362 kts 268°
2026-05-07 10:24 43.26679 -75.01648 33957 ft 362 kts 268°
2026-05-07 10:24 43.26827 -75.08547 34182 ft 362 kts 268°
2026-05-07 10:25 43.26970 -75.15484 34044 ft 364 kts 268°
2026-05-07 10:25 43.27110 -75.22419 33969 ft 362 kts 268°
2026-05-07 10:26 43.27245 -75.29252 33964 ft 360 kts 267°
2026-05-07 10:26 43.27375 -75.36101 33965 ft 358 kts 267°
2026-05-07 10:27 43.27500 -75.42925 33966 ft 357 kts 267°
2026-05-07 10:27 43.27621 -75.49726 33963 ft 356 kts 267°
2026-05-07 10:28 43.27736 -75.56469 33965 ft 356 kts 267°
2026-05-07 10:28 43.27849 -75.63265 33970 ft 357 kts 267°
2026-05-07 10:29 43.27957 -75.70087 33969 ft 358 kts 267°
2026-05-07 10:29 43.28062 -75.76935 33967 ft 360 kts 267°
2026-05-07 10:30 43.28213 -75.87206 33977 ft 362 kts 267°
2026-05-07 10:30 43.28309 -75.94131 33976 ft 363 kts 267°
2026-05-07 10:31 43.28401 -76.01071 33974 ft 365 kts 267°
2026-05-07 10:31 43.28490 -76.08031 33972 ft 365 kts 267°
2026-05-07 10:32 43.28574 -76.14945 33971 ft 365 kts 267°
2026-05-07 10:32 43.28654 -76.21898 33975 ft 364 kts 267°
2026-05-07 10:33 43.28730 -76.28842 33971 ft 363 kts 267°
2026-05-07 10:33 43.28801 -76.35771 33970 ft 363 kts 267°
2026-05-07 10:34 43.28867 -76.42640 33976 ft 362 kts 267°
2026-05-07 10:34 43.28930 -76.49540 33975 ft 361 kts 267°
2026-05-07 10:35 43.28989 -76.56430 33980 ft 361 kts 267°
2026-05-07 10:35 43.29044 -76.63312 33975 ft 361 kts 267°
2026-05-07 10:36 43.29122 -76.70203 33978 ft 361 kts 268°
2026-05-07 10:36 43.29234 -76.77035 33977 ft 361 kts 268°
2026-05-07 10:37 43.29344 -76.83930 33982 ft 361 kts 268°
2026-05-07 10:37 43.29446 -76.90821 33976 ft 361 kts 268°
2026-05-07 10:38 43.29543 -76.97724 33976 ft 362 kts 268°
2026-05-07 10:38 43.29634 -77.04574 33994 ft 362 kts 268°
2026-05-07 10:39 43.29721 -77.11487 33992 ft 362 kts 268°
2026-05-07 10:39 43.29805 -77.18397 33992 ft 362 kts 268°
2026-05-07 10:40 43.29884 -77.25321 33988 ft 363 kts 268°
2026-05-07 10:40 43.29959 -77.32241 33988 ft 363 kts 268°
2026-05-07 10:41 43.30030 -77.39123 33987 ft 363 kts 268°
2026-05-07 10:41 43.30097 -77.46050 33976 ft 363 kts 268°
2026-05-07 10:42 43.30159 -77.52979 33975 ft 363 kts 268°
2026-05-07 10:42 43.30218 -77.59904 33975 ft 363 kts 268°
2026-05-07 10:43 43.30272 -77.66794 33973 ft 363 kts 268°
2026-05-07 10:43 43.30322 -77.73724 33975 ft 363 kts 268°
2026-05-07 10:44 43.30368 -77.80669 33975 ft 364 kts 268°
2026-05-07 10:44 43.30410 -77.87604 33976 ft 364 kts 267°
2026-05-07 10:45 43.30448 -77.94548 33972 ft 364 kts 267°
2026-05-07 10:45 43.30482 -78.01454 33976 ft 364 kts 268°
2026-05-07 10:46 43.30508 -78.07279 33973 ft 364 kts 267°